Tracking 25722 objects as of 29-May-2022
HD Live streaming from Space Station
objects crossing your sky now

SCOUT G-1 DEB

Track SCOUT G-1 DEB now!
10-day predictions


NORAD ID: 43332
Int'l Code: 1988-033N
Perigee: 1,005.9 km
Apogee: 1,284.4 km
Inclination: 90.3 °
Period: 108.1 minutes
Semi major axis: 7516 km
RCS: Unknown
Launch date: April 26, 1988
Source: United States (US)
Launch site: AIR FORCE WESTERN TEST RANGE (AFWTR)

Note: This is SATELLITE DEBRIS
aabbcc
Your satellite tracking list
Your tracking list is empty




NASA's NSSDC Master Catalog

Two Line Element Set (TLE):
1 43332U 88033N   22146.24474605  .00000349  00000-0  63990-3 0  9990
2 43332  90.3288 333.1731 0185287  39.5124 321.9358 13.32327099879007
Source of the keplerian elements: AFSPC